NOAA 17 DEB, 48720

Orbit data source: Space-Track

NOAA 17 DEB, 48720 is space debris in SSO originally from a launch on Mon, 24 Jun 2002 UTC launched from the Air Force Western Test Range (AFWTR). Debris objects in space refer to the collection of defunct objects orbiting the Earth. Examples of debris include non-operational satellites, rocket bodies, and fragments generated from explosions, collisions, or faulty payload assembly.

Loading next visibility...
Identifier
48720, 2002-032BD
Orbit
SSO
Country
Flag of USUS
Related business
Manufacturer
Unknown
Mission
Spacecraft
Bus & Motor
Unknown
Mass
Unknown
Launch date (UTC)
2002-06-24 (23 years ago)
Launch vehicle
Unknown
Launch site
Air Force Western Test Range (AFWTR)
Object type
Payload
Rocket body
Debris
Shape & HBR
Unknown shape, 0.1 m
Radar Cross Section
Small (<0.1 m²)

Expand to show TLE details & history
Last TLE update: 18 hours ago

TLE from 18 hours ago
0 NOAA 17 DEB
1 48720U 02032BD  25348.93342924  .00005895  00000-0  14645-2 0  9995
2 48720  98.8289 342.8201 0029291 178.6765 181.4512 14.51937484248204
Epoch: 2025-12-14T22:24Z
TLE epoch observation values (Epoch: 2025-12-14T22:24:08.286Z)
Latitude
0.00005°
Longitude
-77.05367°
Altitude
743.068 km
Speed
7.472 km/s
True Right ascension
22h 51m 16s
True Declination
0° 00' 00"
Sunlit
Object was in daylight at epoch
Visualization orbit readout
Latitude
Unknown
Longitude
Unknown
Altitude
Unknown
Speed
Unknown
Apparent Right ascension
Unknown
Apparent Declination
Unknown
Sunlit
N/A
Visualization observer readout
Local Sidereal Time
15:08:16
Azimuth
Unknown
Elevation
Unknown
Doppler factor
Unknown
Orbital elements
Apogee altitude
737.23 km
Perigee altitude
695.669 km
Semi-major axis
7,094.586 km
Eccentricity
0.00293
Inclination
98.8289°
RAAN
342.8201°
Arg. of periapsis
178.6765°
True anomaly
181.44273°
Mean anomaly
181.4512°
Eccentric anomaly
181.44696°
Mean motion
3.63206 °/min
Orbital period
99.12 mins
BSTAR
0.0014645
Loading maneuver chart data...
Computing Atmospheric mass density...
Loading historical data...
Loading historical data...
Loading historical data...
Loading historical data...
Loading historical data...
Loading historical data...
Loading historical data...

Documentation

Showing up to 5 results
|